LOCATION_NAME,SAMPLE COLLECTION TIME,DOSE EQUIVALENT RATE (nSv/h),GAMMA COUNT RATE R02 (CPM),GAMMA COUNT RATE R03 (CPM),GAMMA COUNT RATE R04 (CPM),GAMMA COUNT RATE R05 (CPM),GAMMA COUNT RATE R06 (CPM),GAMMA COUNT RATE R07 (CPM),GAMMA COUNT RATE R08 (CPM),GAMMA COUNT RATE R09 (CPM),STATUS
CA: BAKERSFIELD,07/31/2014 17:50:00,,2571.00,1608.00,473.00,246.00,141.00,170.00,101.00,36.00,APPROVED
CA: BAKERSFIELD,07/31/2014 18:50:00,,2423.00,1503.00,451.00,231.00,136.00,161.00,98.00,37.00,APPROVED
CA: BAKERSFIELD,07/31/2014 19:50:00,,2327.00,1431.00,429.00,222.00,130.00,154.00,93.00,37.00,APPROVED
CA: BAKERSFIELD,07/31/2014 20:50:00,,2190.00,1310.00,401.00,206.00,124.00,143.00,88.00,36.00,APPROVED
CA: BAKERSFIELD,07/31/2014 21:51:00,,2099.00,1228.00,373.00,186.00,115.00,133.00,84.00,32.00,APPROVED
CA: BAKERSFIELD,07/31/2014 22:51:00,,2101.00,1221.00,369.00,185.00,115.00,130.00,86.00,32.00,APPROVED
CA: BAKERSFIELD,07/31/2014 23:51:00,,2101.00,1218.00,369.00,184.00,116.00,130.00,86.00,32.00,APPROVED
CA: BAKERSFIELD,08/01/2014 00:51:00,,2123.00,1222.00,369.00,184.00,115.00,128.00,86.00,31.00,APPROVED
CA: BAKERSFIELD,08/01/2014 01:51:00,,2160.00,1251.00,377.00,186.00,115.00,131.00,86.00,31.00,APPROVED
CA: BAKERSFIELD,08/01/2014 02:52:00,,2193.00,1271.00,377.00,188.00,116.00,131.00,82.00,31.00,APPROVED
CA: BAKERSFIELD,08/01/2014 03:52:00,,2269.00,1305.00,378.00,187.00,116.00,132.00,86.00,30.00,APPROVED
CA: BAKERSFIELD,08/01/2014 04:52:00,,2353.00,1345.00,381.00,194.00,118.00,131.00,83.00,30.00,APPROVED
CA: BAKERSFIELD,08/01/2014 05:52:00,,2419.00,1408.00,395.00,204.00,119.00,133.00,86.00,31.00,APPROVED
CA: BAKERSFIELD,08/01/2014 06:52:00,,2533.00,1506.00,420.00,217.00,124.00,146.00,88.00,32.00,APPROVED
CA: BAKERSFIELD,08/01/2014 07:53:00,,2660.00,1607.00,443.00,230.00,129.00,160.00,90.00,34.00,APPROVED
CA: BAKERSFIELD,08/01/2014 08:53:00,,2703.00,1632.00,452.00,231.00,132.00,157.00,91.00,35.00,APPROVED
CA: BAKERSFIELD,08/01/2014 09:53:00,,2816.00,1687.00,459.00,236.00,134.00,164.00,92.00,34.00,APPROVED
CA: BAKERSFIELD,08/01/2014 10:53:00,,2954.00,1794.00,488.00,250.00,139.00,177.00,93.00,35.00,APPROVED
CA: BAKERSFIELD,08/01/2014 11:53:00,,3109.00,1925.00,521.00,268.00,147.00,188.00,95.00,37.00,APPROVED
CA: BAKERSFIELD,08/01/2014 12:54:00,,3188.00,1993.00,546.00,279.00,152.00,200.00,99.00,38.00,APPROVED
CA: BAKERSFIELD,08/01/2014 13:54:00,,3208.00,2017.00,555.00,285.00,157.00,204.00,99.00,39.00,APPROVED
CA: BAKERSFIELD,08/01/2014 14:54:00,,3065.00,1927.00,544.00,272.00,153.00,202.00,99.00,38.00,APPROVED
CA: BAKERSFIELD,08/01/2014 15:54:00,,2780.00,1757.00,504.00,257.00,143.00,182.00,98.00,36.00,APPROVED
CA: BAKERSFIELD,08/01/2014 16:54:00,,2523.00,1551.00,449.00,234.00,133.00,161.00,93.00,35.00,APPROVED
CA: BAKERSFIELD,08/01/2014 17:55:00,,2325.00,1390.00,413.00,205.00,124.00,145.00,90.00,34.00,APPROVED
CA: BAKERSFIELD,08/01/2014 18:55:00,,2184.00,1287.00,388.00,192.00,117.00,135.00,85.00,32.00,APPROVED
CA: BAKERSFIELD,08/01/2014 19:55:00,,2130.00,1247.00,377.00,186.00,114.00,133.00,82.00,31.00,APPROVED
CA: BAKERSFIELD,08/01/2014 20:55:00,,2092.00,1218.00,368.00,181.00,117.00,129.00,84.00,32.00,APPROVED
CA: BAKERSFIELD,08/01/2014 21:55:00,,2060.00,1184.00,361.00,179.00,111.00,125.00,83.00,30.00,APPROVED
CA: BAKERSFIELD,08/01/2014 22:56:00,,2067.00,1188.00,362.00,177.00,112.00,127.00,84.00,31.00,APPROVED
CA: BAKERSFIELD,08/01/2014 23:56:00,,2114.00,1215.00,364.00,184.00,115.00,132.00,84.00,32.00,APPROVED
CA: BAKERSFIELD,08/02/2014 00:56:00,,2152.00,1238.00,373.00,184.00,118.00,132.00,86.00,32.00,APPROVED
CA: BAKERSFIELD,08/02/2014 01:56:00,,2153.00,1248.00,370.00,184.00,117.00,130.00,84.00,32.00,APPROVED
CA: BAKERSFIELD,08/02/2014 02:56:00,,2189.00,1252.00,374.00,187.00,116.00,128.00,83.00,31.00,APPROVED
CA: BAKERSFIELD,08/02/2014 03:57:00,,2275.00,1315.00,386.00,192.00,115.00,131.00,84.00,31.00,APPROVED
CA: BAKERSFIELD,08/02/2014 04:57:00,,2375.00,1388.00,392.00,197.00,119.00,135.00,85.00,32.00,APPROVED
CA: BAKERSFIELD,08/02/2014 05:57:00,,2485.00,1462.00,406.00,212.00,125.00,141.00,89.00,33.00,APPROVED
CA: BAKERSFIELD,08/02/2014 06:57:00,,2630.00,1562.00,436.00,225.00,130.00,150.00,92.00,32.00,APPROVED
CA: BAKERSFIELD,08/02/2014 07:57:00,,2737.00,1660.00,456.00,236.00,134.00,163.00,94.00,34.00,APPROVED
CA: BAKERSFIELD,08/02/2014 08:58:00,,2845.00,1732.00,473.00,249.00,140.00,170.00,94.00,35.00,APPROVED
CA: BAKERSFIELD,08/02/2014 09:58:00,,2951.00,1813.00,495.00,257.00,143.00,176.00,93.00,35.00,APPROVED
CA: BAKERSFIELD,08/02/2014 10:58:00,,3152.00,1991.00,539.00,283.00,153.00,199.00,103.00,38.00,APPROVED
CA: BAKERSFIELD,08/02/2014 11:58:00,,3276.00,2105.00,579.00,305.00,164.00,218.00,109.00,42.00,APPROVED
CA: BAKERSFIELD,08/02/2014 12:58:00,,3224.00,2077.00,576.00,302.00,158.00,214.00,106.00,41.00,APPROVED
CA: BAKERSFIELD,08/02/2014 13:59:00,,3203.00,2022.00,559.00,288.00,155.00,205.00,101.00,40.00,APPROVED
CA: BAKERSFIELD,08/02/2014 14:59:00,,3097.00,1941.00,541.00,270.00,150.00,196.00,97.00,39.00,APPROVED
CA: BAKERSFIELD,08/02/2014 15:59:00,,2908.00,1812.00,519.00,258.00,145.00,186.00,92.00,37.00,APPROVED
CA: BAKERSFIELD,08/02/2014 16:59:00,,2620.00,1625.00,470.00,237.00,136.00,166.00,96.00,35.00,APPROVED
CA: BAKERSFIELD,08/02/2014 17:59:00,,2409.00,1457.00,424.00,218.00,126.00,152.00,91.00,34.00,APPROVED
CA: BAKERSFIELD,08/02/2014 19:00:00,,2187.00,1294.00,393.00,193.00,117.00,134.00,87.00,33.00,APPROVED
CA: BAKERSFIELD,08/02/2014 20:00:00,,2143.00,1241.00,372.00,183.00,115.00,126.00,83.00,32.00,APPROVED
CA: BAKERSFIELD,08/02/2014 21:00:00,,2109.00,1217.00,371.00,178.00,114.00,126.00,82.00,31.00,APPROVED
CA: BAKERSFIELD,08/02/2014 22:00:00,,2102.00,1211.00,367.00,174.00,114.00,122.00,84.00,31.00,APPROVED
CA: BAKERSFIELD,08/02/2014 23:00:00,,2127.00,1227.00,363.00,177.00,110.00,127.00,86.00,31.00,APPROVED
CA: BAKERSFIELD,08/03/2014 00:00:00,,2154.00,1238.00,368.00,180.00,115.00,129.00,82.00,31.00,APPROVED
CA: BAKERSFIELD,08/03/2014 01:01:00,,2186.00,1257.00,369.00,180.00,113.00,128.00,83.00,30.00,APPROVED
CA: BAKERSFIELD,08/03/2014 02:01:00,,2235.00,1287.00,374.00,186.00,114.00,127.00,85.00,31.00,APPROVED
CA: BAKERSFIELD,08/03/2014 03:01:00,,2294.00,1326.00,381.00,186.00,116.00,129.00,86.00,30.00,APPROVED
CA: BAKERSFIELD,08/03/2014 04:01:00,,2378.00,1367.00,394.00,195.00,119.00,133.00,84.00,31.00,APPROVED
CA: BAKERSFIELD,08/03/2014 05:01:00,,2495.00,1480.00,416.00,209.00,122.00,143.00,85.00,32.00,APPROVED
CA: BAKERSFIELD,08/03/2014 06:02:00,,2611.00,1564.00,433.00,227.00,128.00,151.00,91.00,32.00,APPROVED
CA: BAKERSFIELD,08/03/2014 07:02:00,,2584.00,1543.00,436.00,227.00,127.00,152.00,90.00,34.00,APPROVED
CA: BAKERSFIELD,08/03/2014 08:02:00,,2600.00,1545.00,434.00,221.00,130.00,153.00,90.00,32.00,APPROVED
CA: BAKERSFIELD,08/03/2014 09:02:00,,2724.00,1635.00,450.00,237.00,131.00,163.00,94.00,33.00,APPROVED
CA: BAKERSFIELD,08/03/2014 10:02:00,,2692.00,1625.00,450.00,235.00,135.00,162.00,91.00,33.00,APPROVED
CA: BAKERSFIELD,08/03/2014 11:03:00,,2662.00,1606.00,446.00,232.00,130.00,158.00,90.00,32.00,APPROVED
CA: BAKERSFIELD,08/03/2014 12:03:00,,2621.00,1569.00,441.00,221.00,128.00,155.00,87.00,33.00,APPROVED
CA: BAKERSFIELD,08/03/2014 13:03:00,,2634.00,1532.00,439.00,211.00,124.00,152.00,85.00,31.00,APPROVED
CA: BAKERSFIELD,08/03/2014 14:03:00,,2605.00,1533.00,427.00,216.00,126.00,149.00,83.00,33.00,APPROVED
CA: BAKERSFIELD,08/03/2014 15:03:00,,2655.00,1574.00,441.00,220.00,126.00,153.00,87.00,32.00,APPROVED
CA: BAKERSFIELD,08/03/2014 16:04:00,,2805.00,1691.00,474.00,239.00,134.00,166.00,92.00,33.00,APPROVED
CA: BAKERSFIELD,08/03/2014 17:04:00,,2910.00,1785.00,496.00,251.00,140.00,178.00,93.00,34.00,APPROVED
CA: BAKERSFIELD,08/03/2014 18:04:00,,2799.00,1654.00,460.00,231.00,128.00,163.00,87.00,34.00,APPROVED
CA: BAKERSFIELD,08/03/2014 19:04:00,,2647.00,1516.00,421.00,206.00,122.00,149.00,77.00,31.00,APPROVED
CA: BAKERSFIELD,08/03/2014 20:04:00,,2525.00,1443.00,405.00,192.00,116.00,136.00,76.00,31.00,APPROVED
CA: BAKERSFIELD,08/03/2014 21:05:00,,2382.00,1366.00,394.00,192.00,114.00,136.00,81.00,32.00,APPROVED
CA: BAKERSFIELD,08/03/2014 22:05:00,,2368.00,1385.00,400.00,198.00,121.00,137.00,86.00,32.00,APPROVED
CA: BAKERSFIELD,08/03/2014 23:05:00,,2355.00,1380.00,399.00,200.00,119.00,136.00,83.00,31.00,APPROVED
CA: BAKERSFIELD,08/04/2014 00:05:00,,2395.00,1390.00,395.00,199.00,118.00,137.00,85.00,30.00,APPROVED
CA: BAKERSFIELD,08/04/2014 01:05:00,,2453.00,1418.00,404.00,203.00,120.00,137.00,84.00,32.00,APPROVED
CA: BAKERSFIELD,08/04/2014 02:06:00,,2567.00,1475.00,415.00,206.00,123.00,143.00,83.00,31.00,APPROVED
CA: BAKERSFIELD,08/04/2014 03:06:00,,2577.00,1470.00,407.00,206.00,121.00,140.00,81.00,29.00,APPROVED
CA: BAKERSFIELD,08/04/2014 04:06:00,,2643.00,1508.00,418.00,205.00,120.00,146.00,80.00,32.00,APPROVED
CA: BAKERSFIELD,08/04/2014 05:06:00,,2618.00,1487.00,410.00,198.00,118.00,143.00,78.00,32.00,APPROVED
CA: BAKERSFIELD,08/04/2014 06:06:00,,2595.00,1460.00,408.00,189.00,118.00,138.00,77.00,30.00,APPROVED
CA: BAKERSFIELD,08/04/2014 07:07:00,,2600.00,1458.00,404.00,195.00,116.00,136.00,76.00,29.00,APPROVED
CA: BAKERSFIELD,08/04/2014 08:07:00,,2605.00,1479.00,408.00,200.00,121.00,144.00,76.00,30.00,APPROVED
CA: BAKERSFIELD,08/04/2014 09:07:00,,2679.00,1521.00,415.00,202.00,121.00,148.00,78.00,29.00,APPROVED
CA: BAKERSFIELD,08/04/2014 10:07:00,,2696.00,1536.00,426.00,209.00,123.00,149.00,78.00,31.00,APPROVED
CA: BAKERSFIELD,08/04/2014 11:07:00,,2706.00,1572.00,427.00,211.00,122.00,150.00,78.00,30.00,APPROVED
CA: BAKERSFIELD,08/04/2014 12:08:00,,2767.00,1599.00,437.00,216.00,127.00,155.00,80.00,31.00,APPROVED
CA: BAKERSFIELD,08/04/2014 13:08:00,,2893.00,1666.00,457.00,219.00,130.00,163.00,79.00,33.00,APPROVED
CA: BAKERSFIELD,08/04/2014 14:08:00,,2972.00,1752.00,474.00,229.00,131.00,171.00,79.00,34.00,APPROVED
CA: BAKERSFIELD,08/04/2014 15:08:00,,2926.00,1731.00,477.00,232.00,135.00,171.00,78.00,33.00,APPROVED
CA: BAKERSFIELD,08/04/2014 16:08:00,,2774.00,1645.00,460.00,222.00,134.00,167.00,81.00,34.00,APPROVED
CA: BAKERSFIELD,08/04/2014 17:09:00,,2584.00,1545.00,445.00,223.00,133.00,157.00,86.00,33.00,APPROVED
CA: BAKERSFIELD,08/04/2014 18:09:00,,2429.00,1449.00,422.00,213.00,127.00,150.00,89.00,30.00,APPROVED
CA: BAKERSFIELD,08/04/2014 19:09:00,,2323.00,1367.00,402.00,202.00,122.00,144.00,87.00,32.00,APPROVED
CA: BAKERSFIELD,08/04/2014 20:09:00,,2207.00,1291.00,388.00,188.00,114.00,131.00,84.00,30.00,APPROVED
CA: BAKERSFIELD,08/04/2014 21:09:00,,2158.00,1236.00,369.00,183.00,112.00,129.00,82.00,31.00,APPROVED
CA: BAKERSFIELD,08/04/2014 22:10:00,,2122.00,1210.00,368.00,174.00,109.00,125.00,82.00,30.00,APPROVED
CA: BAKERSFIELD,08/04/2014 23:10:00,,2159.00,1242.00,367.00,184.00,113.00,125.00,81.00,30.00,APPROVED
CA: BAKERSFIELD,08/05/2014 00:10:00,,2216.00,1272.00,378.00,183.00,113.00,134.00,87.00,31.00,APPROVED
CA: BAKERSFIELD,08/05/2014 01:10:00,,2252.00,1313.00,385.00,189.00,119.00,134.00,84.00,32.00,APPROVED
CA: BAKERSFIELD,08/05/2014 02:10:00,,2285.00,1331.00,385.00,192.00,118.00,133.00,86.00,30.00,APPROVED
CA: BAKERSFIELD,08/05/2014 03:11:00,,2343.00,1356.00,393.00,195.00,117.00,134.00,83.00,32.00,APPROVED
CA: BAKERSFIELD,08/05/2014 04:11:00,,2401.00,1374.00,384.00,195.00,117.00,134.00,81.00,30.00,APPROVED
CA: BAKERSFIELD,08/05/2014 05:11:00,,2544.00,1452.00,406.00,199.00,119.00,136.00,82.00,32.00,APPROVED
CA: BAKERSFIELD,08/05/2014 06:11:00,,2679.00,1548.00,428.00,213.00,125.00,150.00,85.00,31.00,APPROVED
CA: BAKERSFIELD,08/05/2014 07:11:00,,2765.00,1613.00,444.00,221.00,128.00,156.00,86.00,31.00,APPROVED
CA: BAKERSFIELD,08/05/2014 08:12:00,,2826.00,1655.00,457.00,226.00,128.00,160.00,84.00,32.00,APPROVED
CA: BAKERSFIELD,08/05/2014 09:12:00,,2824.00,1667.00,454.00,226.00,129.00,163.00,83.00,32.00,APPROVED
CA: BAKERSFIELD,08/05/2014 10:12:00,,2869.00,1677.00,460.00,227.00,131.00,166.00,81.00,32.00,APPROVED
CA: BAKERSFIELD,08/05/2014 11:12:00,,2926.00,1732.00,472.00,233.00,133.00,174.00,83.00,35.00,APPROVED
CA: BAKERSFIELD,08/05/2014 12:12:00,,2965.00,1771.00,490.00,240.00,135.00,180.00,81.00,35.00,APPROVED
CA: BAKERSFIELD,08/05/2014 13:13:00,,3008.00,1811.00,495.00,245.00,135.00,182.00,84.00,35.00,APPROVED
CA: BAKERSFIELD,08/05/2014 14:13:00,,3022.00,1825.00,508.00,241.00,141.00,184.00,82.00,36.00,APPROVED
CA: BAKERSFIELD,08/05/2014 15:13:00,,2937.00,1784.00,500.00,242.00,138.00,191.00,83.00,36.00,APPROVED
CA: BAKERSFIELD,08/05/2014 16:13:00,,2864.00,1752.00,496.00,241.00,137.00,180.00,85.00,37.00,APPROVED
CA: BAKERSFIELD,08/05/2014 17:13:00,,2690.00,1650.00,469.00,230.00,132.00,169.00,88.00,36.00,APPROVED
CA: BAKERSFIELD,08/05/2014 18:14:00,,2522.00,1525.00,448.00,219.00,128.00,162.00,89.00,35.00,APPROVED
CA: BAKERSFIELD,08/06/2014 16:25:00,,2655.00,1671.00,485.00,268.00,140.00,173.00,102.00,41.00,APPROVED
CA: BAKERSFIELD,08/06/2014 17:25:00,,2501.00,1538.00,448.00,244.00,137.00,160.00,99.00,38.00,APPROVED
CA: BAKERSFIELD,08/06/2014 18:26:00,,2391.00,1438.00,424.00,222.00,126.00,148.00,92.00,39.00,APPROVED
CA: BAKERSFIELD,08/06/2014 19:26:00,,2275.00,1357.00,408.00,212.00,124.00,146.00,91.00,36.00,APPROVED
CA: BAKERSFIELD,08/06/2014 20:26:00,,2254.00,1348.00,406.00,208.00,124.00,141.00,92.00,35.00,APPROVED
CA: BAKERSFIELD,08/06/2014 21:26:00,,2227.00,1338.00,409.00,211.00,124.00,147.00,94.00,36.00,APPROVED
CA: BAKERSFIELD,08/06/2014 22:26:00,,2212.00,1323.00,407.00,210.00,119.00,143.00,91.00,36.00,APPROVED
CA: BAKERSFIELD,08/06/2014 23:27:00,,2237.00,1344.00,402.00,209.00,123.00,145.00,96.00,36.00,APPROVED
CA: BAKERSFIELD,08/07/2014 00:27:00,,2249.00,1339.00,405.00,209.00,122.00,145.00,92.00,37.00,APPROVED
CA: BAKERSFIELD,08/07/2014 01:27:00,,2220.00,1316.00,400.00,208.00,122.00,144.00,91.00,35.00,APPROVED
CA: BAKERSFIELD,08/07/2014 02:27:00,,2262.00,1340.00,404.00,210.00,124.00,142.00,94.00,35.00,APPROVED
CA: BAKERSFIELD,08/07/2014 03:27:00,,2328.00,1378.00,406.00,219.00,122.00,143.00,92.00,38.00,APPROVED
CA: BAKERSFIELD,08/07/2014 04:28:00,,2389.00,1437.00,415.00,227.00,125.00,147.00,95.00,37.00,APPROVED
CA: BAKERSFIELD,08/07/2014 05:28:00,,2462.00,1498.00,433.00,239.00,126.00,155.00,97.00,38.00,APPROVED
CA: BAKERSFIELD,08/07/2014 06:28:00,,2519.00,1553.00,444.00,245.00,134.00,159.00,100.00,38.00,APPROVED
CA: BAKERSFIELD,08/07/2014 07:28:00,,2564.00,1599.00,457.00,261.00,140.00,168.00,100.00,41.00,APPROVED
CA: BAKERSFIELD,08/07/2014 08:28:00,,2706.00,1722.00,490.00,277.00,144.00,183.00,107.00,43.00,APPROVED
CA: BAKERSFIELD,08/07/2014 09:29:00,,2950.00,1998.00,561.00,343.00,168.00,212.00,124.00,51.00,APPROVED
CA: BAKERSFIELD,08/07/2014 10:29:00,,3112.00,2202.00,614.00,389.00,184.00,239.00,135.00,60.00,APPROVED
CA: BAKERSFIELD,08/07/2014 11:29:00,,3239.00,2334.00,670.00,414.00,195.00,265.00,148.00,62.00,APPROVED
CA: BAKERSFIELD,08/07/2014 12:29:00,,3312.00,2450.00,707.00,440.00,204.00,280.00,155.00,64.00,APPROVED
CA: BAKERSFIELD,08/07/2014 13:29:00,,3325.00,2442.00,708.00,436.00,205.00,278.00,154.00,65.00,APPROVED
CA: BAKERSFIELD,08/07/2014 14:29:00,,3432.00,2514.00,734.00,437.00,211.00,284.00,155.00,65.00,APPROVED
CA: BAKERSFIELD,08/07/2014 15:30:00,,3594.00,2724.00,802.00,492.00,226.00,314.00,174.00,76.00,APPROVED
CA: BAKERSFIELD,08/07/2014 16:30:00,,3407.00,2647.00,797.00,491.00,231.00,314.00,178.00,81.00,APPROVED
CA: BAKERSFIELD,08/07/2014 17:30:00,,3034.00,2292.00,723.00,425.00,207.00,280.00,160.00,77.00,APPROVED
CA: BAKERSFIELD,08/08/2014 19:10:00,,2361.00,1340.00,382.00,198.00,115.00,136.00,84.00,31.00,APPROVED
CA: BAKERSFIELD,08/08/2014 20:10:00,,2229.00,1271.00,376.00,202.00,119.00,139.00,88.00,33.00,APPROVED
CA: BAKERSFIELD,08/08/2014 21:11:00,,2162.00,1235.00,369.00,195.00,119.00,136.00,89.00,31.00,APPROVED
CA: BAKERSFIELD,08/08/2014 22:11:00,,2139.00,1222.00,365.00,191.00,114.00,135.00,89.00,32.00,APPROVED
CA: BAKERSFIELD,08/08/2014 23:11:00,,2131.00,1215.00,363.00,194.00,114.00,135.00,89.00,30.00,APPROVED
CA: BAKERSFIELD,08/09/2014 00:11:00,,2154.00,1219.00,368.00,192.00,116.00,137.00,88.00,32.00,APPROVED
CA: BAKERSFIELD,08/09/2014 01:11:00,,2174.00,1243.00,368.00,196.00,116.00,139.00,91.00,32.00,APPROVED
CA: BAKERSFIELD,08/09/2014 02:12:00,,2209.00,1269.00,375.00,200.00,120.00,139.00,91.00,32.00,APPROVED
CA: BAKERSFIELD,08/09/2014 03:12:00,,2271.00,1306.00,380.00,200.00,117.00,136.00,88.00,32.00,APPROVED
CA: BAKERSFIELD,08/09/2014 04:12:00,,2366.00,1357.00,386.00,208.00,120.00,142.00,89.00,31.00,APPROVED
CA: BAKERSFIELD,08/09/2014 05:12:00,,2484.00,1429.00,403.00,218.00,125.00,145.00,88.00,33.00,APPROVED
CA: BAKERSFIELD,08/09/2014 06:12:00,,2573.00,1505.00,414.00,231.00,127.00,149.00,94.00,36.00,APPROVED
CA: BAKERSFIELD,08/09/2014 07:12:00,,2656.00,1557.00,425.00,240.00,130.00,154.00,95.00,36.00,APPROVED
CA: BAKERSFIELD,08/09/2014 08:13:00,,2755.00,1615.00,438.00,247.00,135.00,159.00,94.00,36.00,APPROVED
CA: BAKERSFIELD,08/09/2014 09:13:00,,2835.00,1671.00,452.00,255.00,136.00,160.00,99.00,38.00,APPROVED
CA: BAKERSFIELD,08/09/2014 10:13:00,,2896.00,1723.00,463.00,260.00,140.00,170.00,99.00,38.00,APPROVED
CA: BAKERSFIELD,08/09/2014 11:13:00,,2969.00,1749.00,474.00,262.00,140.00,171.00,102.00,38.00,APPROVED
CA: BAKERSFIELD,08/09/2014 12:13:00,,3072.00,1806.00,484.00,267.00,144.00,169.00,101.00,37.00,APPROVED
CA: BAKERSFIELD,08/09/2014 13:14:00,,3172.00,1919.00,509.00,287.00,148.00,182.00,106.00,41.00,APPROVED
CA: BAKERSFIELD,08/09/2014 14:14:00,,3247.00,2005.00,535.00,306.00,153.00,193.00,113.00,44.00,APPROVED
CA: BAKERSFIELD,08/09/2014 15:14:00,,3129.00,1948.00,527.00,302.00,155.00,197.00,111.00,42.00,APPROVED
CA: BAKERSFIELD,08/09/2014 16:14:00,,2960.00,1832.00,509.00,289.00,152.00,186.00,109.00,44.00,APPROVED
CA: BAKERSFIELD,08/09/2014 17:14:00,,2732.00,1681.00,472.00,272.00,145.00,171.00,104.00,43.00,APPROVED
CA: BAKERSFIELD,08/09/2014 18:15:00,,2497.00,1517.00,442.00,246.00,131.00,157.00,98.00,40.00,APPROVED
CA: BAKERSFIELD,08/09/2014 19:15:00,,2435.00,1463.00,427.00,235.00,130.00,157.00,97.00,39.00,APPROVED
CA: BAKERSFIELD,08/09/2014 20:15:00,,2416.00,1456.00,429.00,234.00,131.00,156.00,97.00,41.00,APPROVED
CA: BAKERSFIELD,08/09/2014 21:15:00,,2316.00,1384.00,410.00,222.00,127.00,154.00,97.00,37.00,APPROVED
CA: BAKERSFIELD,08/09/2014 22:15:00,,2217.00,1296.00,387.00,207.00,121.00,145.00,93.00,33.00,APPROVED
CA: BAKERSFIELD,08/09/2014 23:16:00,,2181.00,1255.00,376.00,201.00,120.00,139.00,91.00,33.00,APPROVED
CA: BAKERSFIELD,08/10/2014 00:16:00,,2171.00,1257.00,379.00,200.00,117.00,141.00,93.00,34.00,APPROVED
CA: BAKERSFIELD,08/10/2014 01:16:00,,2196.00,1273.00,377.00,204.00,119.00,141.00,92.00,34.00,APPROVED
CA: BAKERSFIELD,08/10/2014 02:16:00,,2231.00,1303.00,385.00,204.00,121.00,138.00,90.00,33.00,APPROVED
CA: BAKERSFIELD,08/10/2014 03:16:00,,2310.00,1339.00,391.00,210.00,122.00,140.00,90.00,34.00,APPROVED
CA: BAKERSFIELD,08/10/2014 04:17:00,,2384.00,1390.00,403.00,212.00,123.00,142.00,93.00,34.00,APPROVED
CA: BAKERSFIELD,08/10/2014 05:17:00,,2390.00,1388.00,392.00,213.00,120.00,142.00,89.00,35.00,APPROVED
CA: BAKERSFIELD,08/10/2014 06:17:00,,2475.00,1429.00,396.00,213.00,122.00,139.00,88.00,34.00,APPROVED
CA: BAKERSFIELD,08/10/2014 07:17:00,,2591.00,1492.00,412.00,223.00,124.00,145.00,91.00,34.00,APPROVED
CA: BAKERSFIELD,08/10/2014 08:17:00,,2691.00,1560.00,428.00,230.00,128.00,149.00,93.00,34.00,APPROVED
CA: BAKERSFIELD,08/10/2014 09:18:00,,2778.00,1606.00,439.00,236.00,131.00,152.00,94.00,35.00,APPROVED
CA: BAKERSFIELD,08/10/2014 10:18:00,,2790.00,1625.00,444.00,239.00,131.00,155.00,95.00,35.00,APPROVED
CA: BAKERSFIELD,08/10/2014 11:18:00,,2842.00,1650.00,451.00,240.00,131.00,158.00,93.00,34.00,APPROVED
CA: BAKERSFIELD,08/10/2014 12:18:00,,2901.00,1704.00,457.00,247.00,134.00,159.00,96.00,36.00,APPROVED
CA: BAKERSFIELD,08/10/2014 13:18:00,,2964.00,1755.00,465.00,253.00,138.00,170.00,97.00,36.00,APPROVED
CA: BAKERSFIELD,08/10/2014 14:19:00,,3009.00,1823.00,485.00,267.00,139.00,172.00,102.00,37.00,APPROVED
CA: BAKERSFIELD,08/10/2014 15:19:00,,3074.00,1914.00,520.00,290.00,150.00,190.00,111.00,42.00,APPROVED
CA: BAKERSFIELD,08/10/2014 16:19:00,,2779.00,1713.00,484.00,272.00,143.00,175.00,104.00,38.00,APPROVED
CA: BAKERSFIELD,08/10/2014 17:19:00,,2605.00,1555.00,448.00,241.00,134.00,155.00,98.00,39.00,APPROVED
CA: BAKERSFIELD,08/10/2014 18:19:00,,2480.00,1465.00,420.00,224.00,130.00,148.00,95.00,36.00,APPROVED
CA: BAKERSFIELD,08/10/2014 19:20:00,,2397.00,1412.00,413.00,215.00,124.00,144.00,90.00,37.00,APPROVED
CA: BAKERSFIELD,08/10/2014 20:20:00,,2332.00,1375.00,405.00,211.00,124.00,143.00,92.00,34.00,APPROVED
CA: BAKERSFIELD,08/10/2014 21:20:00,,2288.00,1352.00,397.00,212.00,121.00,144.00,93.00,34.00,APPROVED
CA: BAKERSFIELD,08/10/2014 22:20:00,,2256.00,1316.00,393.00,210.00,123.00,141.00,93.00,34.00,APPROVED
CA: BAKERSFIELD,08/10/2014 23:20:00,,2205.00,1287.00,382.00,199.00,122.00,142.00,90.00,34.00,APPROVED
CA: BAKERSFIELD,08/11/2014 00:20:00,,2214.00,1273.00,381.00,198.00,117.00,140.00,89.00,32.00,APPROVED
CA: BAKERSFIELD,08/11/2014 01:21:00,,2223.00,1271.00,377.00,197.00,117.00,137.00,87.00,33.00,APPROVED
CA: BAKERSFIELD,08/11/2014 02:21:00,,2249.00,1295.00,387.00,199.00,118.00,138.00,89.00,33.00,APPROVED
CA: BAKERSFIELD,08/11/2014 03:21:00,,2328.00,1341.00,389.00,204.00,120.00,140.00,88.00,33.00,APPROVED
CA: BAKERSFIELD,08/11/2014 04:21:00,,2416.00,1395.00,392.00,210.00,120.00,141.00,87.00,33.00,APPROVED
CA: BAKERSFIELD,08/11/2014 05:21:00,,2522.00,1464.00,412.00,220.00,121.00,143.00,89.00,34.00,APPROVED
CA: BAKERSFIELD,08/11/2014 06:22:00,,2571.00,1507.00,414.00,229.00,126.00,147.00,92.00,35.00,APPROVED
CA: BAKERSFIELD,08/11/2014 07:22:00,,2656.00,1556.00,426.00,233.00,129.00,152.00,93.00,36.00,APPROVED
CA: BAKERSFIELD,08/11/2014 08:22:00,,2762.00,1649.00,447.00,246.00,135.00,159.00,95.00,37.00,APPROVED
CA: BAKERSFIELD,08/11/2014 09:22:00,,2847.00,1691.00,465.00,255.00,136.00,160.00,100.00,37.00,APPROVED
CA: BAKERSFIELD,08/11/2014 10:22:00,,2924.00,1740.00,471.00,262.00,139.00,166.00,101.00,40.00,APPROVED
CA: BAKERSFIELD,08/11/2014 11:23:00,,3030.00,1839.00,494.00,279.00,147.00,176.00,104.00,39.00,APPROVED
CA: BAKERSFIELD,08/11/2014 12:23:00,,3128.00,1899.00,507.00,281.00,151.00,182.00,105.00,42.00,APPROVED
CA: BAKERSFIELD,08/11/2014 13:23:00,,3190.00,1964.00,521.00,294.00,154.00,187.00,107.00,41.00,APPROVED
CA: BAKERSFIELD,08/11/2014 14:23:00,,3140.00,1946.00,526.00,289.00,151.00,189.00,112.00,40.00,APPROVED
CA: BAKERSFIELD,08/11/2014 15:23:00,,2962.00,1811.00,500.00,274.00,145.00,180.00,105.00,39.00,APPROVED
CA: BAKERSFIELD,08/11/2014 16:24:00,,2653.00,1579.00,447.00,238.00,132.00,157.00,95.00,36.00,APPROVED
CA: BAKERSFIELD,08/11/2014 17:24:00,,2499.00,1464.00,416.00,221.00,122.00,144.00,92.00,34.00,APPROVED
CA: BAKERSFIELD,08/11/2014 18:24:00,,2359.00,1382.00,404.00,214.00,121.00,140.00,89.00,34.00,APPROVED
CA: BAKERSFIELD,08/11/2014 19:24:00,,2299.00,1352.00,397.00,206.00,120.00,140.00,87.00,33.00,APPROVED
CA: BAKERSFIELD,08/11/2014 20:24:00,,2277.00,1340.00,396.00,211.00,121.00,142.00,91.00,34.00,APPROVED
CA: BAKERSFIELD,08/11/2014 21:25:00,,2227.00,1314.00,392.00,212.00,120.00,142.00,90.00,37.00,APPROVED
CA: BAKERSFIELD,08/11/2014 22:25:00,,2191.00,1280.00,381.00,203.00,119.00,143.00,91.00,34.00,APPROVED
CA: BAKERSFIELD,08/11/2014 23:25:00,,2124.00,1223.00,374.00,193.00,115.00,135.00,90.00,33.00,APPROVED
CA: BAKERSFIELD,08/12/2014 00:25:00,,2109.00,1208.00,368.00,192.00,116.00,135.00,89.00,32.00,APPROVED
CA: BAKERSFIELD,08/12/2014 01:25:00,,2132.00,1235.00,373.00,198.00,119.00,139.00,90.00,34.00,APPROVED
CA: BAKERSFIELD,08/12/2014 02:26:00,,2213.00,1289.00,385.00,199.00,117.00,140.00,91.00,34.00,APPROVED
CA: BAKERSFIELD,08/12/2014 03:26:00,,2286.00,1333.00,386.00,204.00,118.00,138.00,87.00,35.00,APPROVED
CA: BAKERSFIELD,08/12/2014 04:26:00,,2390.00,1399.00,403.00,216.00,122.00,144.00,89.00,35.00,APPROVED
CA: BAKERSFIELD,08/12/2014 05:26:00,,2494.00,1475.00,417.00,231.00,128.00,148.00,94.00,36.00,APPROVED
CA: BAKERSFIELD,08/12/2014 06:26:00,,2545.00,1502.00,415.00,229.00,127.00,148.00,92.00,36.00,APPROVED
CA: BAKERSFIELD,08/12/2014 07:27:00,,2583.00,1530.00,428.00,230.00,130.00,150.00,95.00,36.00,APPROVED